{"data":{"norad_id":69448,"intl_designator":"2026-127F","name":"STARLINK-37572","alt_names":[],"object_type":"PAYLOAD","status":"ACTIVE","operator":null,"country":"US","launch_date":"2026-06-08","launch_site_code":"AFETR","launch_vehicle":null,"mission":null,"orbit_class":"UNKNOWN","rcs_meters":null,"size_class":null,"mass_kg":null,"dimensions":null,"purposes":["comms"],"wikipedia_slug":null,"has_3d_model":false,"image_url":null,"decayed_at":null,"tle_current":{"epoch":"2026-09-20T02:40:15.509568Z","epoch_age_seconds":59058,"freshness":"FRESH","line1":"1 69448U 26127F   26263.11129062  .00015159  00000+0  45886-3 0  9994","line2":"2 69448  53.1586 167.4465 0001099 102.0613 258.0512 15.34401630 16137","mean_motion":15.3440163,"eccentricity":0.0001099,"inclination_deg":53.1586,"raan_deg":167.4465,"arg_perigee_deg":102.0613,"mean_anomaly_deg":258.0512,"bstar":0.00045886,"rev_number":1613,"period_min":93.847658386546,"perigee_km":461.94658769792,"apogee_km":463.45020331785,"semimajor_km":6840.8353955079,"source":"CELESTRAK","updated_at":"2026-09-20T09:00:44.199679Z"}}}